GW0931 Weather Reports


time (UTC)temp
F
wind
direction
speed
knots
gust
knots
rain 1hr
in
rain 24hr
in
rain mn
in
humidity
%
barometer
mb
20260507200049 84 87 2.6 9.6 0.00 0.00 0.00 79 1012.9
20260507194634 85 44 4.3 8.7 0.00 0.00 0.00 78 1012.9
20260507193015 85 9 4.3 9.6 0.00 0.00 0.00 79 1013.0
20260507191510 84 19 3.5 10.4 0.00 0.00 0.00 79 1013.0
20260507190023 84 63 2.6 10.4 0.00 0.00 0.00 79 1013.1
20260507184525 85 78 4.3 10.4 0.00 0.00 0.00 78 1013.2
20260507183033 86 71 3.5 7.8 0.00 0.00 0.00 77 1013.4
20260507181523 86 11 4.3 8.7 0.00 0.00 0.00 77 1013.6
20260507180038 87 55 2.6 7.0 0.00 0.00 0.00 76 1013.7
20260507174547 88 317 1.7 6.1 0.00 0.00 0.00 73 1013.9
20260507173051 88 120 0.9 5.2 0.00 0.00 0.00 70 1014.2
20260507171508 88 309 1.7 6.1 0.00 0.00 0.00 72 1014.3
20260507170012 88 314 1.7 7.0 0.00 0.00 0.00 72 1014.5
20260507164529 88 43 0.9 4.3 0.00 0.00 0.00 73 1014.8
20260507163041 88 124 0.9 6.1 0.00 0.00 0.00 72 1014.9
20260507161550 88 344 0.0 4.3 0.00 0.00 0.00 72 1015.2
20260507160052 89 341 0.9 3.5 0.00 0.00 0.00 70 1015.3
20260507154607 88 319 0.9 2.6 0.00 0.00 0.00 70 1015.3
20260507153101 88 278 0.9 3.5 0.00 0.00 0.00 69 1015.4
20260507151519 87 322 0.9 4.3 0.00 0.00 0.00 70 1015.4
20260507150031 87 300 0.9 5.2 0.00 0.00 0.00 70 1015.5
20260507144547 87 319 0.0 3.5 0.00 0.00 0.00 70 1015.4
20260507143111 86 50 0.9 3.5 0.00 0.00 0.00 71 1015.4
20260507141516 86 325 1.7 3.5 0.00 0.00 0.00 70 1015.4
20260507140130 85 57 0.9 3.5 0.00 0.00 0.00 73 1015.5
20260507134525 85 75 0.9 3.5 0.00 0.00 0.00 72 1015.5
20260507133045 84 65 0.9 3.5 0.00 0.00 0.00 73 1015.3
20260507131611 84 321 0.0 3.5 0.00 0.00 0.00 75 1015.3
20260507130017 83 70 1.7 2.6 0.00 0.00 0.00 74 1015.2
20260507124513 82 23 0.9 3.5 0.00 0.00 0.00 76 1015.2
20260507123016 82 71 0.0 2.6 0.00 0.00 0.00 77 1015.0
20260507121524 81 55 0.0 4.3 0.00 0.00 0.00 79 1014.8
20260507120033 82 75 0.9 2.6 0.00 0.00 0.00 77 1014.5
20260507114536 81 75 0.0 2.6 0.00 0.00 0.00 80 1014.4
20260507113043 80 55 0.0 1.7 0.00 0.00 0.00 81 1014.2
20260507111543 79 285 0.0 1.7 0.00 0.00 0.00 80 1014.3
20260507110054 78 276 0.9 2.6 0.00 0.00 0.00 84 1014.3
20260507104511 77 269 0.9 1.7 0.00 0.00 0.00 82 1014.3
20260507103025 77 266 0.0 0.0 0.00 0.00 0.00 80 1014.1
20260507101531 76 269 0.0 1.7 0.00 0.00 0.00 80 1014.1
20260507100046 76 89 0.0 1.7 0.00 0.00 0.00 78 1013.9
20260507094542 77 94 0.0 4.3 0.00 0.00 0.00 79 1013.6
20260507093051 77 73 0.9 4.3 0.00 0.00 0.00 78 1013.4
20260507091552 77 82 0.9 3.5 0.00 0.00 0.00 79 1013.3
20260507090010 76 108 0.9 3.5 0.00 0.00 0.00 81 1013.4
20260507084511 76 75 0.9 3.5 0.00 0.00 0.00 84 1013.5
20260507083022 76 79 0.9 3.5 0.00 0.00 0.00 88 1013.7
20260507081532 76 116 0.9 1.7 0.00 0.00 0.00 90 1013.7
20260507080038 76 91 0.9 3.5 0.00 0.00 0.00 90 1013.7
20260507074542 76 91 0.0 0.9 0.00 0.00 0.00 89 1013.5
20260507073044 76 73 0.0 0.9 0.00 0.00 0.00 88 1013.6
20260507071600 77 278 0.0 0.0 0.00 0.00 0.00 87 1013.7
20260507070055 77 262 0.0 2.6 0.00 0.00 0.00 86 1013.9
20260507064553 78 180 0.9 2.6 0.00 0.00 0.00 85 1013.9
20260507063001 78 250 0.0 3.5 0.00 0.00 0.00 83 1014.1
20260507061604 78 177 0.0 1.7 0.00 0.00 0.00 83 1014.2
20260507060056 78 247 0.0 2.6 0.00 0.00 0.00 83 1014.3
20260507054508 78 184 0.0 2.6 0.00 0.00 0.00 84 1014.7
20260507053009 78 174 0.0 4.3 0.00 0.00 0.00 86 1014.8
20260507051533 78 241 0.9 3.5 0.00 0.00 0.00 87 1015.0
20260507050019 78 274 0.9 3.5 0.00 0.00 0.00 88 1015.2
20260507044537 79 200 0.0 2.6 0.00 0.00 0.00 89 1015.4
20260507043038 79 211 0.0 1.7 0.00 0.00 0.00 89 1015.6
20260507041548 79 207 0.0 1.7 0.00 0.00 0.00 88 1015.9
20260507040109 80 252 0.0 0.9 0.00 0.00 0.00 88 1016.0
20260507034509 80 271 0.0 3.5 0.00 0.00 0.00 88 1016.1
20260507033037 80 64 1.7 5.2 0.00 0.00 0.00 88 1016.2
20260507031533 80 55 2.6 5.2 0.00 0.00 0.00 88 1016.2
20260507030034 80 66 3.5 7.0 0.00 0.00 0.00 88 1016.4
20260507024544 80 31 1.7 5.2 0.00 0.00 0.00 88 1016.3
20260507023044 80 54 2.6 7.8 0.00 0.00 0.00 88 1016.3
20260507021545 80 63 2.6 7.0 0.00 0.00 0.00 87 1016.2
20260507020046 80 18 3.5 7.8 0.00 0.00 0.00 87 1016.0
20260507014554 80 64 2.6 6.1 0.00 0.00 0.00 87 1015.8
20260507013057 80 39 3.5 7.0 0.00 0.00 0.00 87 1015.8
20260507011603 80 65 4.3 7.8 0.00 0.00 0.00 87 1015.6
20260507010018 80 49 2.6 7.8 0.00 0.00 0.00 86 1015.5
20260507004512 80 39 2.6 7.0 0.00 0.00 0.00 85 1015.4
20260507003011 81 58 1.7 5.2 0.00 0.00 0.00 85 1015.5
20260507001548 81 65 1.7 4.3 0.00 0.00 0.00 84 1015.3
20260507000104 81 30 1.7 5.2 0.00 0.00 0.00 83 1015.2
20260506234601 81 48 1.7 6.1 0.00 0.00 0.00 81 1015.1
20260506233103 81 352 1.7 6.1 0.00 0.00 0.00 81 1014.9
20260506231603 81 54 0.9 5.2 0.00 0.00 0.00 81 1014.8
20260506230002 81 53 1.7 5.2 0.00 0.00 0.00 81 1014.5
20260506224511 82 49 1.7 7.8 0.00 0.00 0.00 81 1014.3
20260506223012 82 58 2.6 7.0 0.00 0.00 0.00 81 1014.1
20260506221530 82 51 1.7 6.1 0.00 0.00 0.00 80 1014.0
20260506220038 83 65 1.7 5.2 0.00 0.00 0.00 79 1014.0
20260506214549 83 60 1.7 4.3 0.00 0.00 0.00 79 1013.9
20260506213051 84 58 1.7 5.2 0.00 0.00 0.00 78 1013.7
20260506211549 85 52 2.6 6.1 0.00 0.00 0.00 75 1013.5
20260506210012 86 313 0.0 5.2 0.00 0.00 0.00 74 1013.6
20260506204515 86 58 0.0 5.2 0.00 0.00 0.00 73 1013.5
20260506203020 86 51 0.9 6.1 0.00 0.00 0.00 71 1013.5
20260506201528 87 37 1.7 5.2 0.00 0.00 0.00 69 1013.6